PGT1521 LTBJ-UUWW

Flight info

Callsign PGT1521
Flight time 3h 48m
Altitude 38000
Route VEXOL UG802 KERMA UL618 LMO DCT ATFIR DCT LOMOS DCT NARKA DCT PERIT DCT KEKED/N0450F390 DCT PODAN DCT VABER DCT LAUGA DCT IGORO/K0837F390 M864 DURTI N609 LIVDA N168 BILRU BILRU3B
Aircraft A20N/M-SDE2E3FGHIRWXY/LB1

Departure

Time 2026-05-07 06:34
Airport Adnan Menderes International Airport (LTBJ)

Arrival

Time 2026-05-07 10:23
Airport Vnukovo International Airport (UUWW)
Time Latitude Longitude Altitude Speed Heading
2026-05-07 06:08 38.29491 27.14998 398 ft 0 kts 256°
2026-05-07 06:25 38.29493 27.15005 396 ft 2 kts 253°
2026-05-07 06:25 38.29497 27.15025 396 ft 2 kts 255°
2026-05-07 06:25 38.29501 27.15045 398 ft 2 kts 262°
2026-05-07 06:25 38.29501 27.15066 397 ft 2 kts 290°
2026-05-07 06:26 38.29492 27.15083 391 ft 2 kts 334°
2026-05-07 06:26 38.29477 27.15089 397 ft 2 kts 346°
2026-05-07 06:26 38.29474 27.15090 397 ft 0 kts 346°
2026-05-07 06:29 38.29478 27.15089 396 ft 2 kts 346°
2026-05-07 06:29 38.29499 27.15082 397 ft 4 kts 346°
2026-05-07 06:29 38.29538 27.15070 397 ft 7 kts 346°
2026-05-07 06:30 38.29596 27.15052 398 ft 10 kts 347°
2026-05-07 06:30 38.29669 27.15031 398 ft 12 kts 347°
2026-05-07 06:30 38.29758 27.15006 401 ft 14 kts 347°
2026-05-07 06:30 38.29857 27.14976 402 ft 16 kts 346°
2026-05-07 06:31 38.29933 27.14970 403 ft 10 kts 38°
2026-05-07 06:31 38.29956 27.15064 400 ft 13 kts 76°
2026-05-07 06:31 38.29979 27.15189 402 ft 16 kts 77°
2026-05-07 06:31 38.30027 27.15242 403 ft 10 kts 348°
2026-05-07 06:32 38.30101 27.15220 404 ft 12 kts 347°
2026-05-07 06:32 38.30199 27.15191 405 ft 18 kts 346°
2026-05-07 06:32 38.30338 27.15150 410 ft 23 kts 347°
2026-05-07 06:32 38.30494 27.15110 407 ft 21 kts
2026-05-07 06:33 38.30592 27.15117 412 ft 10 kts 317°
2026-05-07 06:33 38.30575 27.15079 409 ft 5 kts 181°
2026-05-07 06:33 38.30525 27.15092 406 ft 10 kts 165°
2026-05-07 06:33 38.30324 27.15153 409 ft 61 kts 166°
2026-05-07 06:34 38.29710 27.15337 398 ft 118 kts 167°
2026-05-07 06:34 38.28773 27.15619 478 ft 150 kts 166°
2026-05-07 06:34 38.27774 27.15930 1003 ft 149 kts 166°
2026-05-07 06:34 38.26765 27.16258 1561 ft 149 kts 166°
2026-05-07 06:35 38.25759 27.16582 2085 ft 150 kts 166°
2026-05-07 06:35 38.24716 27.16910 2491 ft 160 kts 167°
2026-05-07 06:35 38.23587 27.17259 2858 ft 178 kts 167°
2026-05-07 06:35 38.22305 27.17666 3238 ft 200 kts 166°
2026-05-07 06:36 38.21371 27.17964 3487 ft 218 kts 166°
2026-05-07 06:36 38.19818 27.18457 4036 ft 240 kts 166°
2026-05-07 06:36 38.17499 27.18636 4840 ft 267 kts 194°
2026-05-07 06:36 38.15850 27.17535 5681 ft 275 kts 222°
2026-05-07 06:37 38.15030 27.16285 6285 ft 279 kts 241°
2026-05-07 06:37 38.14355 27.13948 7217 ft 281 kts 257°
2026-05-07 06:37 38.13900 27.11553 8212 ft 282 kts 259°
2026-05-07 06:37 38.13461 27.09097 9213 ft 285 kts 261°
2026-05-07 06:38 38.13307 27.06588 10175 ft 284 kts 277°
2026-05-07 06:38 38.13705 27.04100 10689 ft 300 kts 291°
2026-05-07 06:38 38.14443 27.01499 11041 ft 323 kts 292°
2026-05-07 06:38 38.15218 26.98762 11702 ft 331 kts 292°
2026-05-07 06:39 38.15985 26.96009 12625 ft 332 kts 292°
2026-05-07 06:39 38.16752 26.93225 13547 ft 334 kts 292°
2026-05-07 06:39 38.17517 26.90432 14347 ft 338 kts 292°
2026-05-07 06:39 38.18292 26.87596 15075 ft 342 kts 292°
2026-05-07 06:40 38.19078 26.84718 15802 ft 346 kts 291°
2026-05-07 06:40 38.19872 26.81808 16528 ft 350 kts 291°
2026-05-07 06:40 38.20662 26.78907 17238 ft 354 kts 291°
2026-05-07 06:40 38.21477 26.75914 17944 ft 357 kts 291°
2026-05-07 06:41 38.22295 26.72904 18618 ft 361 kts 291°
2026-05-07 06:41 38.23112 26.69898 19232 ft 364 kts 291°
2026-05-07 06:41 38.23938 26.66842 19886 ft 366 kts 291°
2026-05-07 06:41 38.24700 26.63757 20518 ft 369 kts 289°
2026-05-07 06:42 38.25432 26.60587 21156 ft 372 kts 289°
2026-05-07 06:42 38.26153 26.57440 21799 ft 374 kts 289°
2026-05-07 06:42 38.26894 26.54227 22370 ft 379 kts 289°
2026-05-07 06:42 38.27646 26.50999 22974 ft 381 kts 289°
2026-05-07 06:43 38.28408 26.47741 23573 ft 385 kts 289°
2026-05-07 06:43 38.29168 26.44494 24093 ft 387 kts 289°
2026-05-07 06:43 38.29943 26.41185 24603 ft 390 kts 289°
2026-05-07 06:43 38.30721 26.37861 25085 ft 392 kts 289°
2026-05-07 06:44 38.31494 26.34551 25571 ft 395 kts 289°
2026-05-07 06:44 38.32283 26.31173 26045 ft 397 kts 289°
2026-05-07 06:44 38.33074 26.27776 26509 ft 400 kts 289°
2026-05-07 06:44 38.33865 26.24379 26929 ft 403 kts 289°
2026-05-07 06:45 38.34530 26.20865 27298 ft 409 kts 283°
2026-05-07 06:45 38.34883 26.17298 27745 ft 413 kts 277°
2026-05-07 06:45 38.34967 26.13613 28160 ft 416 kts 275°
2026-05-07 06:45 38.35147 26.09916 28552 ft 418 kts 278°
2026-05-07 06:46 38.35420 26.06215 28960 ft 419 kts 278°
2026-05-07 06:46 38.35707 26.02539 29311 ft 422 kts 278°
2026-05-07 06:46 38.35988 25.98784 29683 ft 424 kts 278°
2026-05-07 06:46 38.36493 25.95083 30036 ft 423 kts 288°
2026-05-07 06:47 38.37547 25.91613 30254 ft 425 kts 299°
2026-05-07 06:47 38.39158 25.88449 30554 ft 425 kts 310°
2026-05-07 06:47 38.41215 25.85777 30895 ft 426 kts 320°
2026-05-07 06:47 38.43709 25.83637 31209 ft 429 kts 331°
2026-05-07 06:48 38.46448 25.82212 31574 ft 431 kts 341°
2026-05-07 06:48 38.49296 25.81104 31988 ft 430 kts 341°
2026-05-07 06:48 38.52171 25.79982 32428 ft 428 kts 341°
2026-05-07 06:48 38.54993 25.78874 32829 ft 427 kts 341°
2026-05-07 06:49 38.57843 25.77752 33238 ft 426 kts 341°
2026-05-07 06:49 38.60683 25.76630 33634 ft 425 kts 340°
2026-05-07 06:49 38.63508 25.75512 34051 ft 423 kts 341°
2026-05-07 06:49 38.66285 25.74413 34398 ft 422 kts 340°
2026-05-07 06:50 38.69092 25.73302 34735 ft 420 kts 340°
2026-05-07 06:50 38.71881 25.72197 35067 ft 418 kts 340°
2026-05-07 06:50 38.74674 25.71090 35389 ft 417 kts 340°
2026-05-07 06:50 38.77432 25.69996 35692 ft 416 kts 340°
2026-05-07 06:51 38.80169 25.68910 35986 ft 415 kts 340°
2026-05-07 06:51 38.82934 25.67810 36269 ft 414 kts 339°
2026-05-07 06:51 38.85690 25.66714 36542 ft 413 kts 339°
2026-05-07 06:51 38.88399 25.65635 36790 ft 412 kts 339°
2026-05-07 06:52 38.91147 25.64540 37057 ft 411 kts 339°
2026-05-07 06:52 38.93890 25.63446 37285 ft 411 kts 339°
2026-05-07 06:52 38.99350 25.61264 37600 ft 413 kts 339°
2026-05-07 06:53 39.02111 25.60161 37853 ft 411 kts 339°
2026-05-07 06:53 39.04830 25.59073 38087 ft 410 kts 339°
2026-05-07 06:53 39.10277 25.56890 38112 ft 410 kts 339°
2026-05-07 06:54 39.15709 25.54709 38112 ft 410 kts 339°
2026-05-07 06:54 39.21149 25.52522 38121 ft 410 kts 339°
2026-05-07 06:55 39.26593 25.50330 38109 ft 410 kts 339°
2026-05-07 06:55 39.32037 25.48135 38114 ft 410 kts 339°
2026-05-07 06:56 39.37491 25.45932 38111 ft 411 kts 339°
2026-05-07 06:56 39.42927 25.43732 38117 ft 411 kts 339°
2026-05-07 06:57 39.48388 25.41519 38120 ft 411 kts 339°
2026-05-07 06:57 39.53837 25.39306 38114 ft 412 kts 339°
2026-05-07 06:58 39.59298 25.37084 38111 ft 412 kts 339°
2026-05-07 06:58 39.64801 25.34843 38114 ft 412 kts 339°
2026-05-07 06:59 39.70270 25.32610 38103 ft 413 kts 339°
2026-05-07 06:59 39.75737 25.30374 38115 ft 414 kts 339°
2026-05-07 07:00 39.81240 25.28122 38100 ft 416 kts 339°
2026-05-07 07:00 39.86782 25.25851 38105 ft 416 kts 339°
2026-05-07 07:01 39.92111 25.23077 38102 ft 412 kts 328°
2026-05-07 07:01 39.96858 25.18992 38102 ft 408 kts 321°
2026-05-07 07:02 40.01422 25.14607 38106 ft 409 kts 321°
2026-05-07 07:02 40.05997 25.10218 38108 ft 409 kts 321°
2026-05-07 07:03 40.10597 25.05783 38110 ft 409 kts 321°
2026-05-07 07:03 40.15161 25.01371 38111 ft 409 kts 321°
2026-05-07 07:04 40.19718 24.96956 38093 ft 409 kts 321°
2026-05-07 07:04 40.24286 24.92525 38112 ft 409 kts 321°
2026-05-07 07:05 40.28877 24.88064 38095 ft 410 kts 321°
2026-05-07 07:05 40.33456 24.83606 38100 ft 411 kts 321°
2026-05-07 07:06 40.38045 24.79131 38104 ft 412 kts 321°
2026-05-07 07:06 40.42653 24.74630 38105 ft 412 kts 321°
2026-05-07 07:07 40.47243 24.70139 38115 ft 413 kts 321°
2026-05-07 07:07 40.51851 24.65622 38111 ft 414 kts 321°
2026-05-07 07:08 40.56472 24.61084 38112 ft 414 kts 320°
2026-05-07 07:08 40.61089 24.56543 38115 ft 415 kts 320°
2026-05-07 07:09 40.65703 24.51996 38115 ft 415 kts 320°
2026-05-07 07:09 40.70294 24.47464 38108 ft 413 kts 320°
2026-05-07 07:10 40.74900 24.42909 38105 ft 414 kts 320°
2026-05-07 07:10 40.79521 24.38331 38095 ft 415 kts 321°
2026-05-07 07:11 40.84160 24.33726 38106 ft 419 kts 321°
2026-05-07 07:11 40.88801 24.29113 38107 ft 418 kts 321°
2026-05-07 07:12 40.93436 24.24496 38097 ft 417 kts 321°
2026-05-07 07:12 40.98080 24.19863 38094 ft 417 kts 321°
2026-05-07 07:13 41.02690 24.15254 38100 ft 417 kts 320°
2026-05-07 07:13 41.07313 24.10625 38085 ft 416 kts 320°
2026-05-07 07:14 41.11926 24.05997 38088 ft 416 kts 320°
2026-05-07 07:14 41.16589 24.01308 38102 ft 421 kts 320°
2026-05-07 07:15 41.21244 23.96622 38103 ft 420 kts 320°
2026-05-07 07:15 41.25903 23.91923 38102 ft 420 kts 320°
2026-05-07 07:16 41.30556 23.87221 38102 ft 421 kts 320°
2026-05-07 07:16 41.35210 23.82509 38105 ft 420 kts 320°
2026-05-07 07:17 41.40144 23.78341 38098 ft 424 kts 334°
2026-05-07 07:17 41.45853 23.76294 38099 ft 430 kts 348°
2026-05-07 07:18 41.51786 23.75071 38111 ft 430 kts 347°
2026-05-07 07:18 41.57691 23.73833 38100 ft 430 kts 348°
2026-05-07 07:19 41.63606 23.72596 38098 ft 430 kts 348°
2026-05-07 07:19 41.69520 23.71362 38109 ft 430 kts 348°
2026-05-07 07:20 41.75419 23.70124 38111 ft 431 kts 348°
2026-05-07 07:20 41.81334 23.68881 38117 ft 432 kts 348°
2026-05-07 07:21 41.87301 23.67625 38130 ft 432 kts 348°
2026-05-07 07:21 41.93235 23.66373 38125 ft 433 kts 348°
2026-05-07 07:22 41.99176 23.65119 38121 ft 432 kts 348°
2026-05-07 07:22 42.05090 23.63869 38119 ft 431 kts 348°
2026-05-07 07:23 42.11026 23.62610 38121 ft 432 kts 348°
2026-05-07 07:23 42.16946 23.61350 38120 ft 431 kts 348°
2026-05-07 07:24 42.21875 23.60302 38120 ft 430 kts 348°
2026-05-07 07:24 42.27830 23.59033 38123 ft 431 kts 348°
2026-05-07 07:25 42.36693 23.57140 38127 ft 432 kts 348°
2026-05-07 07:26 42.42665 23.55861 38116 ft 432 kts 348°
2026-05-07 07:26 42.48572 23.54595 38118 ft 430 kts 348°
2026-05-07 07:27 42.54492 23.53322 38116 ft 432 kts 348°
2026-05-07 07:27 42.60425 23.52042 38122 ft 432 kts 348°
2026-05-07 07:28 42.66358 23.50761 38118 ft 434 kts 348°
2026-05-07 07:28 42.72345 23.49466 38132 ft 436 kts 348°
2026-05-07 07:29 42.78313 23.48176 38112 ft 434 kts 348°
2026-05-07 07:29 42.84273 23.46881 38108 ft 435 kts 348°
2026-05-07 07:30 42.90233 23.45583 38110 ft 434 kts 348°
2026-05-07 07:30 42.96186 23.44287 38104 ft 434 kts 347°
2026-05-07 07:31 43.02175 23.42981 38090 ft 435 kts 347°
2026-05-07 07:31 43.08147 23.41674 38075 ft 435 kts 347°
2026-05-07 07:32 43.14095 23.40371 38079 ft 434 kts 347°
2026-05-07 07:32 43.20052 23.39062 38068 ft 434 kts 347°
2026-05-07 07:33 43.26006 23.37752 38059 ft 434 kts 347°
2026-05-07 07:33 43.31994 23.36432 38059 ft 434 kts 347°
2026-05-07 07:34 43.37958 23.35114 38054 ft 434 kts 347°
2026-05-07 07:34 43.43913 23.33796 38051 ft 434 kts 347°
2026-05-07 07:35 43.49881 23.32473 38051 ft 435 kts 347°
2026-05-07 07:35 43.55850 23.31146 38060 ft 435 kts 347°
2026-05-07 07:36 43.61813 23.29818 38068 ft 435 kts 347°
2026-05-07 07:36 43.67778 23.28487 38070 ft 436 kts 347°
2026-05-07 07:37 43.73788 23.27145 38062 ft 436 kts 347°
2026-05-07 07:37 43.79772 23.25805 38068 ft 436 kts 347°
2026-05-07 07:38 43.85696 23.24101 38072 ft 433 kts 340°
2026-05-07 07:38 43.91499 23.21859 38072 ft 434 kts 341°
2026-05-07 07:39 43.97347 23.19627 38075 ft 434 kts 341°
2026-05-07 07:39 44.03172 23.17393 38078 ft 434 kts 341°
2026-05-07 07:40 44.08989 23.15154 38070 ft 436 kts 341°
2026-05-07 07:40 44.14807 23.12907 38069 ft 435 kts 341°
2026-05-07 07:41 44.20668 23.10638 38072 ft 435 kts 341°
2026-05-07 07:41 44.26477 23.08385 38076 ft 435 kts 341°
2026-05-07 07:42 44.32310 23.06120 38075 ft 435 kts 341°
2026-05-07 07:42 44.38125 23.03856 38088 ft 435 kts 341°
2026-05-07 07:43 44.43969 23.01577 38072 ft 436 kts 340°
2026-05-07 07:43 44.49796 22.99298 38070 ft 436 kts 340°
2026-05-07 07:44 44.55668 22.96997 38067 ft 437 kts 340°
2026-05-07 07:44 44.61515 22.94700 38077 ft 437 kts 341°
2026-05-07 07:45 44.67373 22.92396 38086 ft 438 kts 341°
2026-05-07 07:45 44.73238 22.90084 38087 ft 438 kts 341°
2026-05-07 07:46 44.79119 22.87761 38083 ft 438 kts 341°
2026-05-07 07:46 44.84962 22.85447 38086 ft 438 kts 341°
2026-05-07 07:47 44.90848 22.83110 38091 ft 439 kts 341°
2026-05-07 07:47 44.96698 22.80785 38089 ft 439 kts 341°
2026-05-07 07:48 45.02591 22.78437 38097 ft 439 kts 341°
2026-05-07 07:48 45.08453 22.76096 38080 ft 440 kts 341°
2026-05-07 07:49 45.14366 22.73729 38077 ft 440 kts 341°
2026-05-07 07:49 45.20269 22.71361 38077 ft 440 kts 341°
2026-05-07 07:50 45.26147 22.68998 38078 ft 441 kts 341°
2026-05-07 07:50 45.32027 22.66628 38077 ft 441 kts 341°
2026-05-07 07:51 45.37923 22.64251 38095 ft 441 kts 341°
2026-05-07 07:51 45.43849 22.61855 38064 ft 442 kts 341°
2026-05-07 07:52 45.49779 22.59451 38058 ft 441 kts 341°
2026-05-07 07:52 45.55664 22.57057 38056 ft 440 kts 341°
2026-05-07 07:53 45.61561 22.54657 38050 ft 441 kts 341°
2026-05-07 07:53 45.67450 22.52253 38048 ft 441 kts 341°
2026-05-07 07:54 45.73328 22.49850 38037 ft 441 kts 341°
2026-05-07 07:54 45.79253 22.47419 38040 ft 441 kts 341°
2026-05-07 07:55 45.85138 22.45003 38038 ft 441 kts 341°
2026-05-07 07:55 45.91039 22.42575 38036 ft 441 kts 341°
2026-05-07 07:56 45.96955 22.40135 38034 ft 441 kts 341°
2026-05-07 07:56 46.02839 22.37701 38040 ft 441 kts 341°
2026-05-07 07:57 46.08721 22.35264 38027 ft 441 kts 341°
2026-05-07 07:57 46.14646 22.32802 38031 ft 441 kts 341°
2026-05-07 07:58 46.20531 22.30352 38029 ft 442 kts 341°
2026-05-07 07:58 46.26446 22.27885 38032 ft 442 kts 341°
2026-05-07 07:59 46.32341 22.25420 38033 ft 443 kts 341°
2026-05-07 07:59 46.38280 22.22931 38031 ft 443 kts 341°
2026-05-07 08:00 46.44198 22.20446 38026 ft 444 kts 341°
2026-05-07 08:00 46.50133 22.17949 38021 ft 445 kts 340°
2026-05-07 08:01 46.56080 22.15439 38024 ft 446 kts 340°
2026-05-07 08:01 46.62035 22.12921 38026 ft 446 kts 340°
2026-05-07 08:02 46.68016 22.10385 38027 ft 447 kts 340°
2026-05-07 08:02 46.73963 22.07859 38029 ft 447 kts 340°
2026-05-07 08:03 46.79951 22.05309 38026 ft 447 kts 340°
2026-05-07 08:03 46.85908 22.02767 38027 ft 447 kts 340°
2026-05-07 08:04 46.91879 22.00213 38025 ft 447 kts 340°
2026-05-07 08:04 46.97837 21.97658 38011 ft 447 kts 340°
2026-05-07 08:05 47.03805 21.95093 38024 ft 447 kts 340°
2026-05-07 08:05 47.09813 21.92505 38026 ft 447 kts 340°
2026-05-07 08:06 47.15772 21.89934 38005 ft 448 kts 340°
2026-05-07 08:06 47.21781 21.87336 38007 ft 452 kts 340°
2026-05-07 08:07 47.27795 21.84727 37997 ft 451 kts 340°
2026-05-07 08:07 47.33787 21.82112 37997 ft 451 kts 340°
2026-05-07 08:08 47.39836 21.79469 37992 ft 451 kts 340°
2026-05-07 08:08 47.45837 21.76841 37992 ft 453 kts 340°
2026-05-07 08:09 47.51901 21.74183 37994 ft 454 kts 340°
2026-05-07 08:09 47.57925 21.71534 37993 ft 452 kts 340°
2026-05-07 08:10 47.63950 21.68876 37993 ft 453 kts 339°
2026-05-07 08:10 47.69987 21.66206 37991 ft 452 kts 340°
2026-05-07 08:11 47.75025 21.63975 37990 ft 452 kts 340°
2026-05-07 08:11 47.81577 21.61067 37993 ft 453 kts 340°
2026-05-07 08:12 47.87600 21.58385 38001 ft 453 kts 339°
2026-05-07 08:12 47.93674 21.55672 37987 ft 453 kts 339°
2026-05-07 08:13 47.99689 21.52980 37991 ft 453 kts 339°
2026-05-07 08:13 48.05731 21.50269 37977 ft 453 kts 339°
2026-05-07 08:14 48.11770 21.47554 37972 ft 451 kts 339°
2026-05-07 08:14 48.17783 21.44841 37973 ft 455 kts 339°
2026-05-07 08:15 48.23811 21.42119 37967 ft 452 kts 339°
2026-05-07 08:15 48.29861 21.39377 37963 ft 453 kts 339°
2026-05-07 08:16 48.35875 21.36645 37968 ft 454 kts 339°
2026-05-07 08:16 48.41939 21.33883 37971 ft 454 kts 339°
2026-05-07 08:17 48.47992 21.31196 37954 ft 457 kts 343°
2026-05-07 08:17 48.54309 21.29947 37965 ft 463 kts 355°
2026-05-07 08:18 48.60782 21.30572 38010 ft 468 kts
2026-05-07 08:18 48.64043 21.31099 38253 ft 468 kts
2026-05-07 08:18 48.67258 21.31611 38396 ft 470 kts
2026-05-07 08:18 48.70539 21.32137 38602 ft 469 kts
2026-05-07 08:19 48.73748 21.32657 38787 ft 469 kts
2026-05-07 08:19 48.77008 21.33191 38948 ft 469 kts
2026-05-07 08:19 48.80223 21.33720 38959 ft 468 kts
2026-05-07 08:20 48.86675 21.34787 38956 ft 467 kts
2026-05-07 08:20 48.93167 21.35862 38948 ft 467 kts
2026-05-07 08:21 48.99604 21.36930 38942 ft 466 kts
2026-05-07 08:21 49.06071 21.38007 38940 ft 466 kts
2026-05-07 08:22 49.12482 21.39077 38943 ft 467 kts
2026-05-07 08:22 49.18961 21.40161 38950 ft 467 kts
2026-05-07 08:23 49.25415 21.41244 38944 ft 468 kts
2026-05-07 08:23 49.31881 21.42332 38939 ft 467 kts
2026-05-07 08:24 49.38329 21.43420 38933 ft 465 kts
2026-05-07 08:24 49.44731 21.45215 38935 ft 471 kts 11°
2026-05-07 08:25 49.51098 21.47585 38929 ft 470 kts 11°
2026-05-07 08:25 49.57453 21.49922 38936 ft 471 kts 11°
2026-05-07 08:26 49.67035 21.53481 38929 ft 472 kts 11°
2026-05-07 08:26 49.73413 21.55861 38921 ft 472 kts 11°
2026-05-07 08:27 49.79774 21.58245 38907 ft 471 kts 11°
2026-05-07 08:27 49.86170 21.60649 38895 ft 471 kts 11°
2026-05-07 08:28 49.92533 21.63045 38894 ft 471 kts 11°
2026-05-07 08:28 49.98902 21.65452 38888 ft 471 kts 11°
2026-05-07 08:29 50.05256 21.67860 38887 ft 471 kts 11°
2026-05-07 08:29 50.11627 21.70280 38883 ft 471 kts 11°
2026-05-07 08:30 50.17980 21.72700 38882 ft 471 kts 11°
2026-05-07 08:30 50.24330 21.75126 38878 ft 471 kts 11°
2026-05-07 08:31 50.30713 21.77571 38875 ft 471 kts 11°
2026-05-07 08:31 50.37073 21.80014 38876 ft 471 kts 11°
2026-05-07 08:32 50.43436 21.82464 38874 ft 471 kts 11°
2026-05-07 08:32 50.49788 21.84918 38867 ft 471 kts 11°
2026-05-07 08:33 50.56154 21.87384 38859 ft 472 kts 11°
2026-05-07 08:33 50.62546 21.89866 38862 ft 473 kts 11°
2026-05-07 08:34 50.68938 21.92356 38870 ft 474 kts 11°
2026-05-07 08:34 50.74288 21.94445 38870 ft 474 kts 11°
2026-05-07 08:35 50.80687 21.96950 38875 ft 475 kts 11°
2026-05-07 08:35 50.87136 21.99482 38877 ft 476 kts 11°
2026-05-07 08:36 50.93555 22.02011 38875 ft 475 kts 11°
2026-05-07 08:36 50.99967 22.04543 38865 ft 474 kts 11°
2026-05-07 08:37 51.06354 22.07071 38865 ft 474 kts 11°
2026-05-07 08:37 51.12738 22.09606 38864 ft 474 kts 11°
2026-05-07 08:38 51.19110 22.12145 38858 ft 472 kts 11°
2026-05-07 08:38 51.25474 22.14686 38851 ft 471 kts 11°
2026-05-07 08:39 51.31828 22.17231 38846 ft 471 kts 11°
2026-05-07 08:39 51.38174 22.19779 38841 ft 470 kts 11°
2026-05-07 08:40 51.44554 22.22350 38838 ft 470 kts 11°
2026-05-07 08:40 51.50865 22.24899 38832 ft 470 kts 11°
2026-05-07 08:41 51.57211 22.27469 38833 ft 470 kts 11°
2026-05-07 08:41 51.63549 22.30044 38838 ft 471 kts 11°
2026-05-07 08:42 51.69896 22.32631 38837 ft 471 kts 11°
2026-05-07 08:42 51.76257 22.35231 38834 ft 472 kts 11°
2026-05-07 08:43 51.82631 22.37843 38831 ft 473 kts 11°
2026-05-07 08:43 51.88990 22.40457 38843 ft 473 kts 11°
2026-05-07 08:44 51.95357 22.43082 38843 ft 473 kts 11°
2026-05-07 08:44 52.01744 22.45723 38841 ft 473 kts 11°
2026-05-07 08:45 52.08125 22.48369 38844 ft 473 kts 11°
2026-05-07 08:45 52.14452 22.51001 38836 ft 468 kts 11°
2026-05-07 08:46 52.20800 22.53648 38833 ft 470 kts 11°
2026-05-07 08:46 52.27124 22.56293 38826 ft 470 kts 11°
2026-05-07 08:47 52.33450 22.58948 38828 ft 468 kts 11°
2026-05-07 08:47 52.39744 22.61597 38820 ft 467 kts 11°
2026-05-07 08:48 52.46029 22.64249 38816 ft 467 kts 11°
2026-05-07 08:48 52.52315 22.66910 38817 ft 467 kts 11°
2026-05-07 08:49 52.58621 22.69587 38818 ft 468 kts 11°
2026-05-07 08:49 52.64919 22.72269 38816 ft 468 kts 11°
2026-05-07 08:50 52.71198 22.74951 38818 ft 468 kts 11°
2026-05-07 08:50 52.77495 22.77649 38817 ft 468 kts 11°
2026-05-07 08:51 52.83823 22.80367 38818 ft 468 kts 11°
2026-05-07 08:51 52.90110 22.83076 38815 ft 468 kts 11°
2026-05-07 08:52 52.96408 22.85798 38804 ft 468 kts 11°
2026-05-07 08:52 53.02712 22.88532 38806 ft 468 kts 11°
2026-05-07 08:53 53.09007 22.91269 38819 ft 468 kts 11°
2026-05-07 08:53 53.15289 22.94009 38816 ft 469 kts 11°
2026-05-07 08:54 53.21622 22.96780 38819 ft 468 kts 11°
2026-05-07 08:54 53.27909 22.99539 38819 ft 469 kts 11°
2026-05-07 08:55 53.34243 23.02326 38814 ft 469 kts 12°
2026-05-07 08:55 53.40549 23.05110 38815 ft 469 kts 12°
2026-05-07 08:56 53.46843 23.07898 38818 ft 469 kts 12°
2026-05-07 08:56 53.53129 23.10691 38826 ft 469 kts 12°
2026-05-07 08:57 53.59475 23.13519 38816 ft 470 kts 12°
2026-05-07 08:57 53.65785 23.16340 38815 ft 470 kts 12°
2026-05-07 08:58 53.72095 23.19169 38817 ft 470 kts 12°
2026-05-07 08:58 53.78407 23.22008 38818 ft 470 kts 12°
2026-05-07 08:59 53.84731 23.24862 38821 ft 470 kts 12°
2026-05-07 08:59 53.91049 23.27721 38822 ft 471 kts 12°
2026-05-07 09:00 53.97381 23.30597 38836 ft 471 kts 12°
2026-05-07 09:00 54.03731 23.33487 38822 ft 472 kts 12°
2026-05-07 09:01 54.10057 23.36373 38824 ft 472 kts 12°
2026-05-07 09:01 54.16355 23.39637 38831 ft 475 kts 20°
2026-05-07 09:02 54.22188 23.44923 38836 ft 479 kts 33°
2026-05-07 09:02 54.27426 23.51996 38835 ft 480 kts 38°
2026-05-07 09:03 54.32599 23.59236 38841 ft 481 kts 38°
2026-05-07 09:03 54.37786 23.66552 38844 ft 482 kts 38°
2026-05-07 09:04 54.42949 23.73887 38848 ft 483 kts 38°
2026-05-07 09:04 54.48119 23.81262 38848 ft 484 kts 38°
2026-05-07 09:05 54.53285 23.88658 38837 ft 484 kts 38°
2026-05-07 09:05 54.58444 23.96067 38840 ft 484 kts 39°
2026-05-07 09:06 54.63632 24.03544 38840 ft 484 kts 39°
2026-05-07 09:06 54.68787 24.10998 38857 ft 484 kts 38°
2026-05-07 09:07 54.73947 24.18487 38856 ft 485 kts 38°
2026-05-07 09:07 54.79103 24.25995 38858 ft 486 kts 39°
2026-05-07 09:08 54.84272 24.33546 38865 ft 487 kts 39°
2026-05-07 09:08 54.89430 24.41111 38851 ft 484 kts 39°
2026-05-07 09:09 54.94601 24.48717 38863 ft 485 kts 39°
2026-05-07 09:09 54.99773 24.56356 38863 ft 485 kts 39°
2026-05-07 09:10 55.04902 24.63959 38859 ft 486 kts 39°
2026-05-07 09:10 55.10032 24.71587 38866 ft 486 kts 39°
2026-05-07 09:11 55.15196 24.79288 38866 ft 487 kts 39°
2026-05-07 09:11 55.20300 24.86929 38853 ft 484 kts 39°
2026-05-07 09:12 55.25442 24.94655 38867 ft 487 kts 39°
2026-05-07 09:12 55.30573 25.02391 38867 ft 487 kts 39°
2026-05-07 09:13 55.35692 25.10135 38872 ft 488 kts 39°
2026-05-07 09:13 55.40846 25.17962 38856 ft 486 kts 39°
2026-05-07 09:14 55.45923 25.25698 38867 ft 485 kts 39°
2026-05-07 09:14 55.51032 25.33511 38873 ft 486 kts 39°
2026-05-07 09:15 55.56132 25.41338 38877 ft 487 kts 39°
2026-05-07 09:15 55.61247 25.49215 38879 ft 488 kts 39°
2026-05-07 09:16 55.66342 25.57091 38874 ft 487 kts 39°
2026-05-07 09:16 55.71458 25.65028 38874 ft 486 kts 39°
2026-05-07 09:17 55.76529 25.72924 38880 ft 486 kts 40°
2026-05-07 09:17 55.81594 25.80836 38861 ft 486 kts 40°
2026-05-07 09:18 55.86686 25.88822 38863 ft 486 kts 40°
2026-05-07 09:18 55.91723 25.96827 38862 ft 486 kts 44°
2026-05-07 09:19 55.95887 26.06346 38893 ft 491 kts 60°
2026-05-07 09:19 55.98607 26.17500 38893 ft 490 kts 72°
2026-05-07 09:20 56.00845 26.28970 38895 ft 489 kts 72°
2026-05-07 09:20 56.03067 26.40395 38896 ft 489 kts 72°
2026-05-07 09:21 56.05285 26.51954 38891 ft 489 kts 72°
2026-05-07 09:21 56.07477 26.63460 38898 ft 491 kts 72°
2026-05-07 09:22 56.09666 26.75020 38901 ft 489 kts 72°
2026-05-07 09:22 56.11480 26.84653 38898 ft 491 kts 72°
2026-05-07 09:23 56.13649 26.96234 38895 ft 490 kts 72°
2026-05-07 09:23 56.15816 27.07880 38898 ft 490 kts 73°
2026-05-07 09:24 56.17962 27.19477 38900 ft 490 kts 73°
2026-05-07 09:24 56.20085 27.31025 38896 ft 489 kts 73°
2026-05-07 09:25 56.22201 27.42606 38905 ft 488 kts 73°
2026-05-07 09:25 56.24325 27.54307 38900 ft 493 kts 73°
2026-05-07 09:26 56.26434 27.65993 38904 ft 492 kts 73°
2026-05-07 09:26 56.28545 27.77766 38902 ft 492 kts 73°
2026-05-07 09:27 56.30634 27.89491 38909 ft 492 kts 73°
2026-05-07 09:28 56.33750 28.07125 38890 ft 493 kts 73°
2026-05-07 09:28 56.35155 28.19063 38922 ft 485 kts 88°
2026-05-07 09:29 56.34987 28.31195 38904 ft 484 kts 102°
2026-05-07 09:29 56.33908 28.43095 38903 ft 482 kts 102°
2026-05-07 09:30 56.32835 28.55072 38895 ft 482 kts 103°
2026-05-07 09:30 56.31742 28.67000 38895 ft 483 kts 103°
2026-05-07 09:31 56.30634 28.78901 38898 ft 482 kts 103°
2026-05-07 09:31 56.29514 28.90794 38894 ft 482 kts 103°
2026-05-07 09:32 56.28385 29.02665 38900 ft 481 kts 103°
2026-05-07 09:32 56.27250 29.14529 38893 ft 481 kts 103°
2026-05-07 09:33 56.26121 29.26368 38885 ft 481 kts 103°
2026-05-07 09:33 56.24979 29.38214 38883 ft 481 kts 103°
2026-05-07 09:34 56.23825 29.50042 38879 ft 481 kts 103°
2026-05-07 09:34 56.22655 29.61897 38882 ft 481 kts 103°
2026-05-07 09:35 56.21476 29.73729 38890 ft 481 kts 103°
2026-05-07 09:35 56.20287 29.85541 38876 ft 481 kts 103°
2026-05-07 09:36 56.19088 29.97327 38884 ft 480 kts 103°
2026-05-07 09:36 56.17883 30.09064 38880 ft 480 kts 103°
2026-05-07 09:37 56.16661 30.20850 38877 ft 480 kts 104°
2026-05-07 09:37 56.15430 30.32594 38876 ft 480 kts 104°
2026-05-07 09:38 56.14181 30.44339 38875 ft 480 kts 104°
2026-05-07 09:38 56.12920 30.56098 38882 ft 479 kts 104°
2026-05-07 09:39 56.11665 30.67781 38883 ft 479 kts 104°
2026-05-07 09:39 56.10403 30.79460 38881 ft 479 kts 104°
2026-05-07 09:40 56.09122 30.91195 38879 ft 478 kts 104°
2026-05-07 09:40 56.07836 31.02859 38878 ft 478 kts 104°
2026-05-07 09:41 56.06561 31.14500 38871 ft 478 kts 104°
2026-05-07 09:41 56.05278 31.26153 38875 ft 478 kts 104°
2026-05-07 09:42 56.03974 31.37861 38871 ft 478 kts 104°
2026-05-07 09:42 56.02669 31.49461 38869 ft 477 kts 104°
2026-05-07 09:43 56.01349 31.61091 38864 ft 477 kts 104°
2026-05-07 09:43 56.00018 31.72703 38860 ft 478 kts 104°
2026-05-07 09:44 55.98676 31.84327 38874 ft 478 kts 104°
2026-05-07 09:44 55.97315 31.95999 38856 ft 479 kts 104°
2026-05-07 09:45 55.95943 32.07657 38860 ft 480 kts 104°
2026-05-07 09:45 55.94562 32.19282 38845 ft 480 kts 104°
2026-05-07 09:46 55.93170 32.30909 38859 ft 480 kts 104°
2026-05-07 09:46 55.91761 32.42572 38867 ft 481 kts 104°
2026-05-07 09:47 55.90339 32.54249 38869 ft 481 kts 105°
2026-05-07 09:47 55.88912 32.65870 38869 ft 482 kts 105°
2026-05-07 09:48 55.87464 32.77555 38855 ft 482 kts 105°
2026-05-07 09:48 55.85753 32.88940 38863 ft 476 kts 114°
2026-05-07 09:49 55.82685 32.99295 38863 ft 470 kts 129°
2026-05-07 09:49 55.78576 33.08200 38861 ft 467 kts 134°
2026-05-07 09:50 55.74351 33.17011 38862 ft 467 kts 134°
2026-05-07 09:50 55.70145 33.25751 38856 ft 466 kts 134°
2026-05-07 09:51 55.65945 33.34460 38858 ft 466 kts 134°
2026-05-07 09:51 55.61702 33.43191 38857 ft 466 kts 135°
2026-05-07 09:52 55.57449 33.51816 38860 ft 466 kts 135°
2026-05-07 09:52 55.53193 33.60423 38859 ft 467 kts 135°
2026-05-07 09:53 55.48940 33.69058 38869 ft 467 kts 134°
2026-05-07 09:53 55.44737 33.77763 38868 ft 467 kts 134°
2026-05-07 09:54 55.40552 33.86499 38300 ft 466 kts 133°
2026-05-07 09:54 55.38450 33.90883 37484 ft 469 kts 134°
2026-05-07 09:54 55.36348 33.95254 36992 ft 463 kts 134°
2026-05-07 09:54 55.34298 33.99507 36664 ft 458 kts 134°
2026-05-07 09:55 55.32222 34.03798 35972 ft 459 kts 134°
2026-05-07 09:55 55.30139 34.08128 35077 ft 464 kts 131°
2026-05-07 09:55 55.28429 34.12910 34269 ft 471 kts 118°
2026-05-07 09:55 55.27267 34.18364 33237 ft 481 kts 105°
2026-05-07 09:56 55.26735 34.24220 32086 ft 489 kts 94°
2026-05-07 09:56 55.26861 34.30155 30944 ft 496 kts 82°
2026-05-07 09:56 55.27622 34.36050 29919 ft 499 kts 73°
2026-05-07 09:56 55.28603 34.41882 29125 ft 494 kts 73°
2026-05-07 09:57 55.29459 34.47699 28654 ft 483 kts 77°
2026-05-07 09:57 55.30146 34.53378 28118 ft 474 kts 79°
2026-05-07 09:57 55.30720 34.59009 27549 ft 467 kts 81°
2026-05-07 09:57 55.31233 34.64596 26968 ft 460 kts 81°
2026-05-07 09:58 55.31713 34.70091 26403 ft 455 kts 82°
2026-05-07 09:58 55.32178 34.75506 25847 ft 449 kts 82°
2026-05-07 09:58 55.32642 34.80930 25281 ft 444 kts 82°
2026-05-07 09:58 55.33098 34.86306 24723 ft 440 kts 82°
2026-05-07 09:59 55.33541 34.91545 24181 ft 436 kts 82°
2026-05-07 09:59 55.33984 34.96801 23633 ft 432 kts 83°
2026-05-07 09:59 55.34417 35.01976 23066 ft 428 kts 83°
2026-05-07 09:59 55.34847 35.07135 22523 ft 422 kts 83°
2026-05-07 10:00 55.35270 35.12228 22002 ft 416 kts 83°
2026-05-07 10:00 55.35680 35.17185 21489 ft 412 kts 83°
2026-05-07 10:00 55.36090 35.22144 20973 ft 407 kts 83°
2026-05-07 10:00 55.36496 35.27078 20456 ft 403 kts 83°
2026-05-07 10:01 55.36889 35.31886 20052 ft 400 kts 83°
2026-05-07 10:01 55.37296 35.36891 19910 ft 420 kts 83°
2026-05-07 10:01 55.37707 35.41968 19663 ft 416 kts 83°
2026-05-07 10:01 55.38107 35.46925 19280 ft 408 kts 83°
2026-05-07 10:02 55.38501 35.51833 18895 ft 400 kts 83°
2026-05-07 10:02 55.38866 35.56607 18519 ft 393 kts 84°
2026-05-07 10:02 55.39043 35.61413 18247 ft 401 kts 92°
2026-05-07 10:02 55.39001 35.66422 17993 ft 407 kts 92°
2026-05-07 10:03 55.38931 35.71300 17726 ft 395 kts 94°
2026-05-07 10:03 55.38815 35.76064 17508 ft 383 kts 95°
2026-05-07 10:03 55.38669 35.80651 17108 ft 377 kts 95°
2026-05-07 10:03 55.38501 35.85228 16592 ft 375 kts 96°
2026-05-07 10:04 55.38322 35.89821 16072 ft 373 kts 96°
2026-05-07 10:04 55.38140 35.94364 15582 ft 371 kts 96°
2026-05-07 10:04 55.37960 35.98837 15088 ft 369 kts 96°
2026-05-07 10:04 55.37778 36.03346 14628 ft 366 kts 96°
2026-05-07 10:05 55.37598 36.07778 14155 ft 364 kts 96°
2026-05-07 10:05 55.37418 36.12175 13754 ft 359 kts 96°
2026-05-07 10:05 55.37236 36.16579 13269 ft 357 kts 96°
2026-05-07 10:05 55.37058 36.20875 12785 ft 355 kts 96°
2026-05-07 10:06 55.36876 36.25199 12327 ft 352 kts 97°
2026-05-07 10:06 55.36699 36.29418 12141 ft 335 kts 97°
2026-05-07 10:06 55.36533 36.33351 11953 ft 318 kts 97°
2026-05-07 10:06 55.36369 36.37188 11487 ft 312 kts 97°
2026-05-07 10:07 55.36201 36.41016 10943 ft 310 kts 97°
2026-05-07 10:07 55.36037 36.44737 10454 ft 307 kts 97°
2026-05-07 10:07 55.35875 36.48409 10334 ft 309 kts 97°
2026-05-07 10:07 55.35703 36.52230 10183 ft 310 kts 97°
2026-05-07 10:08 55.35536 36.55978 9998 ft 306 kts 97°
2026-05-07 10:08 55.35369 36.59699 9801 ft 306 kts 97°
2026-05-07 10:08 55.35202 36.63378 9598 ft 306 kts 97°
2026-05-07 10:08 55.35034 36.67093 9386 ft 304 kts 97°
2026-05-07 10:09 55.34864 36.70808 9179 ft 302 kts 97°
2026-05-07 10:09 55.34751 36.73257 9024 ft 303 kts 97°
2026-05-07 10:09 55.34526 36.78088 8764 ft 294 kts 97°
2026-05-07 10:09 55.34360 36.81649 8583 ft 288 kts 97°
2026-05-07 10:10 55.34195 36.85156 8409 ft 292 kts 97°
2026-05-07 10:10 55.34081 36.87574 8299 ft 291 kts 97°
2026-05-07 10:10 55.33914 36.91060 8125 ft 288 kts 97°
2026-05-07 10:10 55.33748 36.94550 7944 ft 281 kts 97°
2026-05-07 10:11 55.33589 36.97888 7771 ft 273 kts 98°
2026-05-07 10:11 55.33376 37.02285 7540 ft 272 kts 97°
2026-05-07 10:11 55.33268 37.04495 7425 ft 271 kts 98°
2026-05-07 10:11 55.33106 37.07795 7257 ft 271 kts 98°
2026-05-07 10:12 55.32946 37.11070 7086 ft 270 kts 98°
2026-05-07 10:12 55.32780 37.14374 6910 ft 269 kts 98°
2026-05-07 10:12 55.32617 37.17655 6747 ft 271 kts 98°
2026-05-07 10:12 55.32452 37.20935 6571 ft 267 kts 98°
2026-05-07 10:13 55.32291 37.24164 6359 ft 269 kts 98°
2026-05-07 10:13 55.32129 37.27402 6112 ft 265 kts 98°
2026-05-07 10:13 55.31965 37.30635 5850 ft 264 kts 98°
2026-05-07 10:13 55.31874 37.33884 5593 ft 266 kts 85°
2026-05-07 10:14 55.32478 37.36873 5356 ft 263 kts 54°
2026-05-07 10:14 55.33801 37.38983 5144 ft 252 kts 22°
2026-05-07 10:14 55.35432 37.39879 4943 ft 243 kts
2026-05-07 10:14 55.37092 37.40302 4747 ft 239 kts
2026-05-07 10:15 55.38738 37.40736 4527 ft 244 kts
2026-05-07 10:15 55.40409 37.41327 4324 ft 241 kts
2026-05-07 10:15 55.42014 37.42010 4128 ft 238 kts
2026-05-07 10:15 55.43599 37.42746 4000 ft 230 kts 10°
2026-05-07 10:16 55.45141 37.43485 3995 ft 232 kts 10°
2026-05-07 10:16 55.46680 37.44226 3994 ft 231 kts 10°
2026-05-07 10:16 55.48239 37.44982 3983 ft 230 kts 10°
2026-05-07 10:16 55.49790 37.45732 4000 ft 233 kts 10°
2026-05-07 10:17 55.51345 37.46485 3987 ft 231 kts 10°
2026-05-07 10:17 55.52859 37.47218 3959 ft 215 kts 10°
2026-05-07 10:17 55.54253 37.47899 3742 ft 207 kts
2026-05-07 10:17 55.55648 37.48571 3409 ft 207 kts 11°
2026-05-07 10:18 55.57035 37.49259 3114 ft 208 kts 10°
2026-05-07 10:18 55.58434 37.49970 2811 ft 206 kts
2026-05-07 10:18 55.59757 37.49942 2702 ft 177 kts 332°
2026-05-07 10:18 55.60845 37.49126 2701 ft 172 kts 328°
2026-05-07 10:19 55.61944 37.48318 2660 ft 168 kts 329°
2026-05-07 10:19 55.62974 37.47435 2433 ft 153 kts 306°
2026-05-07 10:19 55.63297 37.45897 2381 ft 126 kts 264°
2026-05-07 10:19 55.63180 37.44483 2331 ft 113 kts 253°
2026-05-07 10:20 55.62946 37.43112 2286 ft 116 kts 250°
2026-05-07 10:20 55.62678 37.41789 2156 ft 114 kts 247°
2026-05-07 10:20 55.62384 37.40485 2027 ft 115 kts 248°
2026-05-07 10:20 55.62088 37.39164 1902 ft 119 kts 248°
2026-05-07 10:21 55.61773 37.37754 1758 ft 121 kts 248°
2026-05-07 10:21 55.61467 37.36404 1579 ft 119 kts 249°
2026-05-07 10:21 55.61146 37.35053 1449 ft 120 kts 246°
2026-05-07 10:21 55.60841 37.33686 1270 ft 121 kts 250°
2026-05-07 10:22 55.60539 37.32279 1145 ft 123 kts 245°
2026-05-07 10:22 55.60217 37.30866 979 ft 127 kts 247°
2026-05-07 10:22 55.59893 37.29410 771 ft 125 kts 248°
2026-05-07 10:22 55.59588 37.28062 685 ft 101 kts 248°
2026-05-07 10:23 55.59429 37.27272 685 ft 20 kts 279°
2026-05-07 10:23 55.59452 37.27099 679 ft 12 kts 290°
2026-05-07 10:23 55.59482 37.26955 682 ft 13 kts 290°
2026-05-07 10:23 55.59545 37.26878 685 ft 12 kts 351°
2026-05-07 10:24 55.59620 37.26973 684 ft 15 kts 46°
2026-05-07 10:24 55.59700 37.27121 685 ft 19 kts 46°
2026-05-07 10:24 55.59795 37.27298 684 ft 18 kts 46°
2026-05-07 10:24 55.59889 37.27470 685 ft 21 kts 46°
2026-05-07 10:25 55.59972 37.27650 682 ft 9 kts 50°
2026-05-07 10:25 55.60028 37.27748 682 ft 13 kts 30°
2026-05-07 10:25 55.60105 37.27873 683 ft 16 kts 57°
2026-05-07 10:25 55.60079 37.28047 682 ft 16 kts 107°
2026-05-07 10:26 55.60081 37.28253 685 ft 15 kts 84°
2026-05-07 10:26 55.60119 37.28342 685 ft 10 kts 357°
2026-05-07 10:26 55.60163 37.28337 683 ft 3 kts
2026-05-07 10:26 55.60167 37.28337 684 ft 0 kts